Previsão horária em Abakumy

Hoje, 14 Abril, Quarta-feira

Tempo Temperatura Precipitação Vento Pressão Humidade
00:00 +9°C° 0 mm 2 m/s 752 mmHg 89%
01:00 +9°C° 0 mm 2 m/s 752 mmHg 89%
02:00 +9°C° 0 mm 2 m/s 752 mmHg 88%
03:00 +9°C° 0 mm 2 m/s 752 mmHg 88%
04:00 +9°C° 0 mm 2 m/s 751 mmHg 89%
05:00 +8°C° 0 mm 2 m/s 751 mmHg 90%
06:00 +9°C° 0 mm 3 m/s 751 mmHg 88%
07:00 +9°C° 0 mm 3 m/s 751 mmHg 86%
08:00 +8°C° 0 mm 4 m/s 751 mmHg 84%
09:00 +10°C° 0 mm 4 m/s 751 mmHg 78%
10:00 +11°C° 0 mm 4 m/s 751 mmHg 72%
11:00 +12°C° 0 mm 4 m/s 751 mmHg 67%
12:00 +13°C° 0 mm 4 m/s 751 mmHg 63%
13:00 +13°C° 0 mm 4 m/s 751 mmHg 60%
14:00 +14°C° 0 mm 4 m/s 750 mmHg 54%
15:00 +14°C° 0.2 mm 3 m/s 750 mmHg 59%
16:00 +14°C° 0.2 mm 2 m/s 750 mmHg 64%
17:00 +13°C° 0.2 mm 1 m/s 750 mmHg 69%
18:00 +13°C° 0.1 mm 1 m/s 750 mmHg 72%
19:00 +12°C° 0.1 mm 1 m/s 750 mmHg 74%
20:00 +12°C° 0.1 mm 1 m/s 750 mmHg 76%
21:00 +11°C° 0 mm 1 m/s 750 mmHg 78%
22:00 +11°C° 0 mm 1 m/s 750 mmHg 80%
23:00 +11°C° 0 mm 1 m/s 750 mmHg 82%

Amanhã, 15 Abril, Quinta-feira

Tempo Temperatura Precipitação Vento Pressão Humidade
00:00 +11°C° 0.2 mm 1 m/s 749 mmHg 84%
01:00 +10°C° 0.2 mm 1 m/s 749 mmHg 86%
02:00 +10°C° 0.2 mm 1 m/s 749 mmHg 88%
03:00 +10°C° 0.1 mm 1 m/s 749 mmHg 89%
04:00 +10°C° 0.1 mm 1 m/s 749 mmHg 90%
05:00 +9°C° 0.1 mm 2 m/s 748 mmHg 91%
06:00 +9°C° 0.2 mm 2 m/s 748 mmHg 91%
07:00 +9°C° 0.2 mm 2 m/s 748 mmHg 91%
08:00 +10°C° 0.2 mm 2 m/s 748 mmHg 91%
09:00 +10°C° 0.3 mm 2 m/s 748 mmHg 90%
10:00 +10°C° 0.3 mm 2 m/s 748 mmHg 89%
11:00 +10°C° 0.3 mm 2 m/s 748 mmHg 88%
12:00 +12°C° 0.5 mm 2 m/s 748 mmHg 82%
13:00 +13°C° 0.5 mm 2 m/s 747 mmHg 76%
14:00 +14°C° 0.5 mm 2 m/s 747 mmHg 70%
15:00 +12°C° 0.4 mm 3 m/s 747 mmHg 72%
16:00 +12°C° 0.4 mm 3 m/s 747 mmHg 74%
17:00 +11°C° 0.4 mm 3 m/s 747 mmHg 77%
18:00 +10°C° 0 mm 3 m/s 747 mmHg 81%
19:00 +9°C° 0 mm 2 m/s 747 mmHg 85%
20:00 +8°C° 0 mm 2 m/s 748 mmHg 90%
21:00 +9°C° 0 mm 1 m/s 747 mmHg 90%
22:00 +8°C° 0 mm 1 m/s 747 mmHg 90%
23:00 +8°C° 0 mm 1 m/s 747 mmHg 90%

Depois de amanhã, 16 Abril, Sexta-feira

Tempo Temperatura Precipitação Vento Pressão Humidade
00:00 +8°C° 0 mm 1 m/s 747 mmHg 90%
01:00 +7°C° 0 mm 2 m/s 747 mmHg 90%
02:00 +7°C° 0 mm 2 m/s 747 mmHg 90%
03:00 +7°C° 0.4 mm 2 m/s 747 mmHg 92%
04:00 +7°C° 0.4 mm 3 m/s 747 mmHg 93%
05:00 +8°C° 0.4 mm 3 m/s 747 mmHg 94%
06:00 +7°C° 0 mm 4 m/s 747 mmHg 90%
07:00 +7°C° 0 mm 4 m/s 747 mmHg 86%
08:00 +8°C° 0 mm 5 m/s 748 mmHg 82%
09:00 +8°C° 0.1 mm 5 m/s 748 mmHg 82%
10:00 +8°C° 0.1 mm 5 m/s 748 mmHg 81%
11:00 +8°C° 0.1 mm 5 m/s 748 mmHg 81%
12:00 +8°C° 0.2 mm 5 m/s 749 mmHg 81%
13:00 +8°C° 0.2 mm 5 m/s 749 mmHg 82%
14:00 +8°C° 0.2 mm 4 m/s 749 mmHg 82%
15:00 +8°C° 0.1 mm 4 m/s 749 mmHg 82%
16:00 +8°C° 0.1 mm 4 m/s 750 mmHg 81%
17:00 +9°C° 0.1 mm 3 m/s 750 mmHg 81%
18:00 +9°C° 0 mm 3 m/s 750 mmHg 84%
19:00 +8°C° 0 mm 2 m/s 750 mmHg 88%
20:00 +7°C° 0 mm 2 m/s 751 mmHg 91%
21:00 +8°C° 0 mm 1 m/s 751 mmHg 91%
22:00 +8°C° 0 mm 1 m/s 751 mmHg 91%
23:00 +8°C° 0 mm 1 m/s 751 mmHg 90%

17 Abril, Sábado

Tempo Temperatura Precipitação Vento Pressão Humidade
00:00 +8°C° 0 mm 1 m/s 751 mmHg 90%
01:00 +8°C° 0 mm 1 m/s 752 mmHg 90%
02:00 +8°C° 0 mm 1 m/s 752 mmHg 90%
03:00 +8°C° 0 mm 1 m/s 752 mmHg 90%
04:00 +8°C° 0 mm 1 m/s 752 mmHg 90%
05:00 +8°C° 0 mm 1 m/s 752 mmHg 90%
06:00 +9°C° 0 mm 1 m/s 753 mmHg 87%
07:00 +9°C° 0 mm 1 m/s 753 mmHg 84%
08:00 +10°C° 0 mm 1 m/s 753 mmHg 81%
09:00 +11°C° 0.1 mm 1 m/s 754 mmHg 75%
10:00 +12°C° 0.1 mm 1 m/s 754 mmHg 69%
11:00 +14°C° 0.1 mm 1 m/s 754 mmHg 63%
12:00 +14°C° 0.2 mm 2 m/s 754 mmHg 61%
13:00 +14°C° 0.2 mm 2 m/s 754 mmHg 59%
14:00 +14°C° 0.2 mm 2 m/s 754 mmHg 57%
15:00 +14°C° 0 mm 2 m/s 754 mmHg 59%
16:00 +14°C° 0 mm 1 m/s 754 mmHg 61%
17:00 +14°C° 0 mm 1 m/s 754 mmHg 63%
18:00 +13°C° 0 mm 1 m/s 754 mmHg 69%
19:00 +12°C° 0 mm 2 m/s 754 mmHg 75%
20:00 +9°C° 0 mm 2 m/s 755 mmHg 81%
21:00 +9°C° 0 mm 2 m/s 755 mmHg 83%
22:00 +9°C° 0 mm 2 m/s 755 mmHg 85%
23:00 +9°C° 0 mm 2 m/s 755 mmHg 88%

18 Abril, Domingo

Tempo Temperatura Precipitação Vento Pressão Humidade
00:00 +9°C° 0.1 mm 2 m/s 755 mmHg 90%
01:00 +9°C° 0.1 mm 2 m/s 755 mmHg 92%
02:00 +9°C° 0.1 mm 2 m/s 755 mmHg 94%
03:00 +9°C° 0 mm 2 m/s 755 mmHg 94%
04:00 +8°C° 0 mm 3 m/s 755 mmHg 94%
05:00 +8°C° 0 mm 3 m/s 755 mmHg 95%
06:00 +8°C° 0 mm 4 m/s 755 mmHg 91%
07:00 +10°C° 0 mm 4 m/s 755 mmHg 87%
08:00 +9°C° 0 mm 5 m/s 755 mmHg 82%
09:00 +11°C° 0 mm 4 m/s 755 mmHg 77%
10:00 +13°C° 0 mm 4 m/s 756 mmHg 72%
11:00 +14°C° 0 mm 4 m/s 756 mmHg 66%
12:00 +14°C° 0 mm 4 m/s 756 mmHg 66%
13:00 +14°C° 0 mm 4 m/s 756 mmHg 66%
14:00 +14°C° 0 mm 3 m/s 756 mmHg 66%
15:00 +13°C° 0 mm 4 m/s 756 mmHg 67%
16:00 +13°C° 0 mm 4 m/s 756 mmHg 68%
17:00 +13°C° 0 mm 4 m/s 757 mmHg 69%
18:00 +12°C° 0 mm 4 m/s 757 mmHg 70%
19:00 +12°C° 0 mm 4 m/s 757 mmHg 70%
20:00 +11°C° 0 mm 4 m/s 757 mmHg 71%
21:00 +11°C° 0 mm 3 m/s 757 mmHg 72%
22:00 +11°C° 0 mm 3 m/s 757 mmHg 72%
23:00 +11°C° 0 mm 3 m/s 758 mmHg 73%

19 Abril, Segunda-feira

Tempo Temperatura Precipitação Vento Pressão Humidade
00:00 +10°C° 0 mm 3 m/s 758 mmHg 72%
01:00 +10°C° 0 mm 3 m/s 758 mmHg 71%
02:00 +10°C° 0 mm 3 m/s 758 mmHg 70%
03:00 +10°C° 0 mm 3 m/s 758 mmHg 72%
04:00 +9°C° 0 mm 3 m/s 758 mmHg 73%
05:00 +9°C° 0 mm 3 m/s 758 mmHg 74%
06:00 +9°C° 0 mm 3 m/s 758 mmHg 74%
07:00 +9°C° 0 mm 3 m/s 758 mmHg 75%
08:00 +10°C° 0 mm 3 m/s 758 mmHg 75%
09:00 +11°C° 0 mm 4 m/s 758 mmHg 68%
10:00 +12°C° 0 mm 4 m/s 758 mmHg 62%
11:00 +13°C° 0 mm 4 m/s 758 mmHg 55%
12:00 +14°C° 0 mm 5 m/s 758 mmHg 50%
13:00 +15°C° 0 mm 5 m/s 758 mmHg 45%
14:00 +16°C° 0 mm 5 m/s 757 mmHg 40%
15:00 +15°C° 0 mm 5 m/s 757 mmHg 43%
16:00 +15°C° 0 mm 5 m/s 757 mmHg 46%
17:00 +14°C° 0 mm 4 m/s 757 mmHg 48%
18:00 +13°C° 0 mm 4 m/s 756 mmHg 52%
19:00 +12°C° 0 mm 4 m/s 756 mmHg 56%
20:00 +11°C° 0 mm 3 m/s 756 mmHg 60%
21:00 +10°C° 0 mm 4 m/s 756 mmHg 63%
22:00 +9°C° 0 mm 5 m/s 756 mmHg 65%
23:00 +9°C° 0 mm 6 m/s 756 mmHg 67%
Mostrar mais

Necessitamos do seu Consentimento

A Meteoprog e os seus Fornecedores de Serviços podem armazenar e aceder a dados pessoais como cookies, identificadores do dispositivo ou outras tecnologias semelhantes existentes no seu dispositivo e processar estes dados para personalizar conteúdos e anúncios, assim como funcionalidades nas redes sociais e análise de tráfego.

  • Armazenar e/ou aceder a informações no seu dispositivo

    Os cookies, identificadores do dispositivo ou outras informações podem ser armazenados ou acedidos no seu dispositivo, para os fins acima indicados.

  • Anúncios e conteúdos personalizados, medição de anúncios e conteúdos, dados sobre o público-alvo e desenvolvimento de produtos

    Os anúncios e os conteúdos podem ser personalizados com base num perfil. Podem ser adicionados dados adicionais para uma maior personalização dos anúncios e dos conteúdos. A eficácia dos anúncios e dos conteúdos pode ser medida. Podem ser obtidas informações sobre o público que visualizou os anúncios e os conteúdos. Estes dados podem ser usados para desenvolver ou melhorar sistemas, softwares ou a experiência do utilizador.

Ao clicar em "Eu concordo”, permitirá o uso de cookies, identificadores do dispositivo e web beacons mencionados ou outras tecnologias semelhantes. As configurações do navegador do seu dispositivo podem ser alteradas.

Para certos fins, podem ser invocados interesses legítimos ao invés de consentimento. Pode ler mais informação sobre este assunto na nossa Política de Privacidade e Cookies.